Tracking 25710 objects as of 4-Jul-2022
HD Live streaming from Space Station
objects crossing your sky now

STARLINK-2423

Track STARLINK-2423 now!
10-day predictions
STARLINK-2423 is classified as:


NORAD ID: 47833
Int'l Code: 2021-018AY
Perigee: 553.1 km
Apogee: 555.6 km
Inclination: 53.1 °
Period: 95.6 minutes
Semi major axis: 6925 km
RCS: Unknown
Launch date: March 11, 2021
Source: United States (US)
Launch site: AIR FORCE EASTERN TEST RANGE (AFETR)
aabbcc
Your satellite tracking list
Your tracking list is empty




NASA's NSSDC Master Catalog

Two Line Element Set (TLE):
1 47833U 21018AY  22185.33185369  .00000873  00000-0  77469-4 0  9998
2 47833  53.0528 166.6847 0001804  54.3744 305.7412 15.06405231 74020
Source of the keplerian elements: AFSPC